Find Starlink 31619

NORAD ID: 59531 Int'l Des: 2024-073 Owner: SPXS Country: US Constellation: starlink operational
LEOCIRCULAR

現在のビュー

3D地球を読み込み中...

About Starlink 31619

Starlink 31619 (NORAD 59531) is a starlink constellation satellite (v2 mini) launched Apr 17, 2024 by SPXS of US. It operates in LEO, CIRCULAR orbit with a mass of 730.00 kg.

Starlink 31619について

説明を読み込み中...

次回通過

Passes for default location (London). Set your location on the main map for personalized predictions.

高度履歴

Loading altitude history...

軌道要素

1 59531U 24073W 26170.53816851 .00000450 00000-0 25899-4 0 9998
2 59531 43.0055 102.6911 0001673 260.9787 99.0875 15.27577791122877
Epoch: Jun 19, 2026 • Age: 17 hours

現在のステータス

高度 495.1 km
速度 7.62 km/s
衛星直下点 -42.83°S, 5.2°E
打ち上げ日 Apr 17, 2024
運用期間 2.1 years
タイプ internet

技術仕様

分類 Payload
質量 730.00 kg
乾燥質量 700.00 kg
総質量 730.00 kg
長さ 0.30 m
直径 4.10 m
スパン 29.00 m
形状 Box + pan
製造者 SPXS
バスタイプ Starlink V2M
フェーズステータス In Orbit
所有者/国 SPXS/US

Most Searched